Location: Eschertshofen
(49.3064°N, 11.5756°E)
Time: 03:26:29
(UTC+00:00)

Cosmos 1437 - Pass Details

Date: 18 September 2020
Orbit: 366 x 369 km, 81.2° (Epoch: 19 October)

Event Time Altitude Azimuth Distance (km) Brightness Sun altitude
Rises 18:10:44 0° 346° (NNW) 2,252 6.8 -9.1°
Reaches altitude 10° 18:12:44 10° 344° (NNW) 1,396 5.8 -9.4°
Maximum altitude 18:15:44 69° 260° (W) 407 2.9 -9.9°
Drops below altitude 10° 18:18:43 10° 177° (S) 1,382 5.2 -10.3°
Sets 18:20:41 0° 175° (S) 2,227 6.2 -10.7°
